• In Belgien
  • Länderverzeichnis
  • Für 7 Tage
  • Wassertemperatur
  • Satellitenkarten
  • Wetterkarte
  • Widgets
  • user-avatar
    Anmelden

    Stündliche Wetter Andenne

    Heute, 13 November, Dienstag

    Zeit Temperatur Niederschläge Wind Luftdruck Luftfeuchtigkeit
    00:00 +9°C° 0 mm 3 m/S 754 mmHg 92%
    01:00 +9°C° 0 mm 3 m/S 754 mmHg 91%
    02:00 +8°C° 0 mm 4 m/S 754 mmHg 91%
    03:00 +8°C° 0 mm 4 m/S 754 mmHg 91%
    04:00 +8°C° 0 mm 4 m/S 755 mmHg 91%
    05:00 +8°C° 0 mm 5 m/S 755 mmHg 91%
    06:00 +8°C° 0 mm 4 m/S 755 mmHg 95%
    07:00 +8°C° 0.1 mm 5 m/S 756 mmHg 92%
    08:00 +8°C° 0.1 mm 6 m/S 756 mmHg 90%
    09:00 +9°C° 0.1 mm 6 m/S 757 mmHg 88%
    10:00 +9°C° 0 mm 6 m/S 757 mmHg 86%
    11:00 +9°C° 0 mm 6 m/S 758 mmHg 85%
    12:00 +10°C° 0 mm 5 m/S 758 mmHg 84%
    13:00 +10°C° 0 mm 5 m/S 758 mmHg 83%
    14:00 +10°C° 0 mm 5 m/S 759 mmHg 83%
    15:00 +11°C° 0 mm 4 m/S 759 mmHg 82%
    16:00 +10°C° 0 mm 4 m/S 759 mmHg 85%
    17:00 +9°C° 0 mm 3 m/S 760 mmHg 88%
    18:00 +8°C° 0 mm 3 m/S 760 mmHg 91%
    19:00 +8°C° 0 mm 3 m/S 760 mmHg 92%
    20:00 +8°C° 0 mm 3 m/S 761 mmHg 93%
    21:00 +7°C° 0 mm 3 m/S 761 mmHg 93%
    22:00 +7°C° 0 mm 3 m/S 761 mmHg 94%
    23:00 +7°C° 0 mm 3 m/S 761 mmHg 94%

    Morgen, 14 November, Mittwoch

    Zeit Temperatur Niederschläge Wind Luftdruck Luftfeuchtigkeit
    00:00 +7°C° 0 mm 2 m/S 761 mmHg 95%
    01:00 +7°C° 0 mm 2 m/S 761 mmHg 95%
    02:00 +7°C° 0 mm 2 m/S 761 mmHg 95%
    03:00 +7°C° 0 mm 2 m/S 761 mmHg 95%
    04:00 +6°C° 0 mm 2 m/S 761 mmHg 95%
    05:00 +6°C° 0 mm 2 m/S 760 mmHg 95%
    06:00 +5°C° 0 mm 3 m/S 760 mmHg 96%
    07:00 +7°C° 0 mm 3 m/S 760 mmHg 93%
    08:00 +8°C° 0 mm 3 m/S 760 mmHg 91%
    09:00 +8°C° 0 mm 3 m/S 760 mmHg 88%
    10:00 +9°C° 0 mm 3 m/S 760 mmHg 82%
    11:00 +11°C° 0 mm 3 m/S 760 mmHg 77%
    12:00 +12°C° 0 mm 3 m/S 760 mmHg 71%
    13:00 +11°C° 0 mm 3 m/S 759 mmHg 73%
    14:00 +12°C° 0 mm 2 m/S 759 mmHg 74%
    15:00 +12°C° 0 mm 2 m/S 759 mmHg 76%
    16:00 +10°C° 0 mm 2 m/S 759 mmHg 80%
    17:00 +8°C° 0 mm 2 m/S 759 mmHg 83%
    18:00 +7°C° 0 mm 3 m/S 759 mmHg 87%
    19:00 +7°C° 0 mm 3 m/S 758 mmHg 85%
    20:00 +6°C° 0 mm 2 m/S 758 mmHg 83%
    21:00 +6°C° 0 mm 2 m/S 758 mmHg 81%
    22:00 +6°C° 0 mm 2 m/S 758 mmHg 80%
    23:00 +6°C° 0 mm 2 m/S 758 mmHg 78%

    übermorgen, 15 November, Donnerstag

    Zeit Temperatur Niederschläge Wind Luftdruck Luftfeuchtigkeit
    00:00 +6°C° 0 mm 2 m/S 758 mmHg 76%
    01:00 +6°C° 0 mm 2 m/S 758 mmHg 75%
    02:00 +6°C° 0 mm 2 m/S 758 mmHg 74%
    03:00 +6°C° 0 mm 2 m/S 758 mmHg 73%
    04:00 +6°C° 0 mm 2 m/S 758 mmHg 73%
    05:00 +6°C° 0 mm 2 m/S 758 mmHg 72%
    06:00 +6°C° 0 mm 2 m/S 758 mmHg 71%
    07:00 +7°C° 0 mm 2 m/S 758 mmHg 69%
    08:00 +8°C° 0 mm 2 m/S 758 mmHg 67%
    09:00 +9°C° 0 mm 2 m/S 758 mmHg 65%
    10:00 +12°C° 0 mm 2 m/S 758 mmHg 63%
    11:00 +13°C° 0 mm 2 m/S 758 mmHg 60%
    12:00 +14°C° 0 mm 2 m/S 758 mmHg 58%
    13:00 +14°C° 0 mm 2 m/S 757 mmHg 63%
    14:00 +13°C° 0 mm 2 m/S 757 mmHg 67%
    15:00 +13°C° 0 mm 2 m/S 757 mmHg 72%
    16:00 +10°C° 0 mm 2 m/S 757 mmHg 76%
    17:00 +9°C° 0 mm 2 m/S 757 mmHg 81%
    18:00 +8°C° 0 mm 2 m/S 757 mmHg 85%
    19:00 +7°C° 0 mm 2 m/S 758 mmHg 85%
    20:00 +7°C° 0 mm 2 m/S 758 mmHg 86%
    21:00 +7°C° 0 mm 2 m/S 758 mmHg 86%
    22:00 +7°C° 0 mm 2 m/S 758 mmHg 86%
    23:00 +7°C° 0 mm 2 m/S 758 mmHg 86%

    16 November, Freitag

    Zeit Temperatur Niederschläge Wind Luftdruck Luftfeuchtigkeit
    00:00 +7°C° 0 mm 2 m/S 759 mmHg 86%
    01:00 +7°C° 0 mm 2 m/S 759 mmHg 85%
    02:00 +7°C° 0 mm 1 m/S 759 mmHg 85%
    03:00 +7°C° 0 mm 1 m/S 759 mmHg 84%
    04:00 +7°C° 0 mm 1 m/S 759 mmHg 84%
    05:00 +7°C° 0 mm 1 m/S 759 mmHg 83%
    06:00 +7°C° 0 mm 1 m/S 759 mmHg 83%
    07:00 +8°C° 0 mm 1 m/S 759 mmHg 79%
    08:00 +9°C° 0 mm 1 m/S 760 mmHg 75%
    09:00 +10°C° 0 mm 1 m/S 760 mmHg 70%
    10:00 +11°C° 0 mm 1 m/S 760 mmHg 66%
    11:00 +13°C° 0 mm 1 m/S 760 mmHg 61%
    12:00 +14°C° 0 mm 2 m/S 760 mmHg 56%
    13:00 +13°C° 0 mm 2 m/S 759 mmHg 60%
    14:00 +13°C° 0 mm 2 m/S 759 mmHg 63%
    15:00 +12°C° 0 mm 2 m/S 759 mmHg 66%
    16:00 +10°C° 0 mm 2 m/S 759 mmHg 66%
    17:00 +9°C° 0 mm 2 m/S 759 mmHg 66%
    18:00 +8°C° 0 mm 3 m/S 759 mmHg 66%
    19:00 +7°C° 0 mm 3 m/S 759 mmHg 64%
    20:00 +7°C° 0 mm 3 m/S 760 mmHg 61%
    21:00 +7°C° 0 mm 3 m/S 760 mmHg 59%
    22:00 +7°C° 0 mm 3 m/S 760 mmHg 60%
    23:00 +5°C° 0 mm 3 m/S 760 mmHg 60%

    17 November, Samstag

    Zeit Temperatur Niederschläge Wind Luftdruck Luftfeuchtigkeit
    00:00 +5°C° 0 mm 3 m/S 760 mmHg 61%
    01:00 +5°C° 0 mm 3 m/S 760 mmHg 61%
    02:00 +5°C° 0 mm 3 m/S 760 mmHg 61%
    03:00 +5°C° 0 mm 3 m/S 760 mmHg 61%
    04:00 +4°C° 0 mm 3 m/S 760 mmHg 61%
    05:00 +4°C° 0 mm 3 m/S 760 mmHg 61%
    06:00 +4°C° 0 mm 4 m/S 760 mmHg 61%
    07:00 +5°C° 0 mm 4 m/S 760 mmHg 59%
    08:00 +6°C° 0 mm 4 m/S 760 mmHg 57%
    09:00 +7°C° 0 mm 4 m/S 760 mmHg 55%
    10:00 +8°C° 0 mm 4 m/S 760 mmHg 52%
    11:00 +10°C° 0 mm 4 m/S 760 mmHg 49%
    12:00 +10°C° 0 mm 5 m/S 760 mmHg 46%
    13:00 +11°C° 0 mm 4 m/S 760 mmHg 49%
    14:00 +10°C° 0 mm 4 m/S 760 mmHg 51%
    15:00 +8°C° 0 mm 4 m/S 759 mmHg 54%
    16:00 +7°C° 0 mm 4 m/S 759 mmHg 56%
    17:00 +6°C° 0 mm 4 m/S 759 mmHg 58%
    18:00 +5°C° 0 mm 4 m/S 759 mmHg 60%
    19:00 +5°C° 0 mm 4 m/S 760 mmHg 63%
    20:00 +4°C° 0 mm 4 m/S 760 mmHg 65%
    21:00 +4°C° 0 mm 4 m/S 760 mmHg 67%
    22:00 +4°C° 0 mm 4 m/S 760 mmHg 68%
    23:00 +4°C° 0 mm 4 m/S 760 mmHg 68%

    18 November, Sonntag

    Zeit Temperatur Niederschläge Wind Luftdruck Luftfeuchtigkeit
    00:00 +3°C° 0 mm 4 m/S 759 mmHg 69%
    01:00 +3°C° 0 mm 4 m/S 759 mmHg 68%
    02:00 +3°C° 0 mm 4 m/S 759 mmHg 67%
    03:00 +3°C° 0 mm 4 m/S 759 mmHg 66%
    04:00 +3°C° 0 mm 4 m/S 759 mmHg 65%
    05:00 +3°C° 0 mm 4 m/S 759 mmHg 64%
    06:00 +2°C° 0 mm 5 m/S 759 mmHg 63%
    07:00 +3°C° 0 mm 5 m/S 759 mmHg 60%
    08:00 +3°C° 0 mm 5 m/S 759 mmHg 56%
    09:00 +5°C° 0 mm 5 m/S 759 mmHg 53%
    10:00 +7°C° 0 mm 5 m/S 759 mmHg 50%
    11:00 +8°C° 0 mm 5 m/S 759 mmHg 47%
    12:00 +9°C° 0 mm 5 m/S 759 mmHg 44%
    13:00 +9°C° 0 mm 5 m/S 759 mmHg 46%
    14:00 +8°C° 0 mm 4 m/S 758 mmHg 49%
    15:00 +7°C° 0 mm 4 m/S 758 mmHg 52%
    16:00 +6°C° 0 mm 4 m/S 758 mmHg 54%
    17:00 +5°C° 0 mm 4 m/S 758 mmHg 56%
    18:00 +4°C° 0 mm 3 m/S 758 mmHg 58%
    19:00 +4°C° 0 mm 3 m/S 758 mmHg 59%
    20:00 +4°C° 0 mm 4 m/S 758 mmHg 59%
    21:00 +4°C° 0 mm 4 m/S 758 mmHg 59%
    22:00 +3°C° 0 mm 4 m/S 758 mmHg 61%
    23:00 +3°C° 0 mm 4 m/S 758 mmHg 63%
    Mehr zeigen